Terminal Aerodrome Forecast
Issued by NWS

Home | Current Version | Previous Version | Text Only | Print | Product List | Glossary On
Versions: 1 2 3 4 5 6 7 8 9 10 11 12 13 14 15 16 17 18 19 20 21 22 23 24 25 26 27 28 29 30 31
000
FTPA31 PHFO 261500 AAB
TAFMDY
TAF AMD
PMDY 261528Z 2615/2712 16007KT P6SM FEW005 SCT025 BKN045
      AMD LTD TO CLD AND WIND=

USA.gov is the U.S. government's official web portal to all federal, state and local government web resources and services.